Skip Page Navigation
NASA JPL Caltech
NASA Logo - Jet Propulsion Laboratory + View the NASA Portal
+ Center for Near-Earth Object Studies
JPL Home Earth Solar System Stars & Galaxies Technology
JPL Solar System Dynamics
BODIES ORBITS EPHEMERIDES TOOLS PHYSICAL DATA DISCOVERY FAQ SITE MAP
JPL Small-Body Database Browser
Search: [ help ]  
487073 (2014 OL100)
Classification: Main-belt Asteroid          SPK-ID: 2487073
Ephemeris | Orbit Diagram | Orbital Elements | Mission Design | Physical Parameters | Discovery Circumstances ]

[ show orbit diagram ]
Orbital Elements at Epoch 2459396.5 (2021-Jul-01.0) TDB
Reference: JPL 17 (heliocentric ecliptic J2000)
 Element Value Uncertainty (1-sigma)   Units 
e .05659854785247998 7.6108e-08  
a 3.05831388903486 5.3765e-08 au
q 2.885217764038416 2.4226e-07 au
i 11.51233280362664 6.7988e-06 deg
node 143.7280205315344 3.7929e-05 deg
peri 269.8388304756483 0.00010191 deg
M 31.10695882701447 8.6027e-05 deg
tp 2459227.698397195032
(2021-Jan-13.19839719)
0.0004683 TDB
period 1953.536420828603
5.35
5.1514e-05
1.41e-07
d
yr
n .1842811816363803 4.8595e-09 deg/d
Q 3.231410014031303 5.6808e-08 au
  Orbit Determination Parameters
   # obs. used (total)      83  
   data-arc span      5449 days (14.92 yr)  
   first obs. used      2006-02-04  
   last obs. used      2021-01-05  
   planetary ephem.      DE441  
   SB-pert. ephem.      SB441-N16  
   condition code      0  
   norm. resid. RMS      .69838  
   source      ORB  
   producer      Otto Matic  
   solution date      2021-Apr-14 17:20:07  

Additional Information
 Earth MOID = 1.92534 au 
 Jupiter MOID = 1.98489 au 
 T_jup = 3.201 
[ show covariance matrix ]

Ephemeris | Orbit Diagram | Orbital Elements | Mission Design | Physical Parameters | Discovery Circumstances ]

Physical Parameter Table
Parameter Symbol Value Units Sigma Reference Notes
absolute magnitude H 16.94   n/a MPCxxxxx  

487073 (2014 OL100)          Discovered 2014-Jul-07 by Pan-STARRS 1 at Haleakala
Reference: Last Updated: 2017-03-14
Ephemeris | Orbit Diagram | Orbital Elements | Mission Design | Physical Parameters | Discovery Circumstances ]
ABOUT SSD CREDITS/AWARDS PRIVACY/COPYRIGHT GLOSSARY LINKS
FirstGov 2021-Jul-26 02:06 UT
(server date/time)  
NASA Home Page
Site Manager:   Ryan S. Park
Webmaster  Alan B. Chamberlin